Starlink 36210

operational
NORAD ID: 67174 Int'l Des: 2025-303 Owner: SPXS Country: US Constellation: starlink
LEOCIRCULAR

About Starlink 36210

Description loading...

Live Position

Loading 3D Globe...

Upcoming Passes

Altitude History

Altitude vs Time

uPlot chart will show altitude changes over time

Two-Line Element Set

1 67174U 25303M 26043.20114494 .00039729 00000-0 95494-3 0 9992
2 67174 42.9958 94.9492 0001582 228.7085 131.3636 15.40650074 8833
Epoch: Feb 12, 2026 • Age: 115 hours

Current Status

Altitude 453.3 km
Velocity 7.64 km/s
Sub-Earth Point -38.13°S, 165.49°E
Launch Date Dec 17, 2025
Age 0.1 years
Type internet

Technical Details

Classification Payload
Mass 575.00 kg
Dry Mass 530.00 kg
Total Mass 575.00 kg
Length 0.30 m
Diameter 4.10 m
Span 29.00 m
Shape Box + pan
Manufacturer SPXS
Bus Type Starlink V2MO
Phase Status In Orbit
Owner/State SPXS/US

Large Constellations

Loading constellations...